Location: Unspecified
(0.0000°N, 0.0000°E)
Time: 22:07:15
(UTC+00:00)

LightSail 2 - Pass Details

Date: 11 December 2019
Orbit: 690 x 723 km, 24.0° (Epoch: 01 July)

Event Time Altitude Azimuth Distance (km) Brightness Sun altitude
Rises 20:13:42 0° 306° (NW) 3,075 8.8 -32.0°
Reaches altitude 10° 20:16:13 10° 311° (NW) 2,152 7.8 -32.5°
Enters shadow 20:16:28 11° 312° (NW) 2,062 7.7 -32.6°
